Regional Weather Roundup
Issued by NWS Grand Forks, ND

Home | Current Version | Previous Version | Text Only | Print | Product List | Glossary On
Versions: 1 2 3 4 5 6 7 8 9 10 11 12 13 14 15 16 17 18 19 20 21 22 23 24 25 26 27 28 29 30 31 32 33 34 35 36 37 38 39 40 41 42 43 44 45 46 47 48 49 50
000
ASUS43 KFGF 050110
RWRFGF
PRAIRIE TO PINES  WEATHER ROUNDUP
NATIONAL WEATHER SERVICE EASTERN NORTH DAKOTA/GRAND FORKS ND
700 PM CST SUN DEC 04 2016

 **SATELLITE DATA USED TO AUGMENT SKY COVER AT AUTOMATED STATIONS**
 *****  WEATHER ACROSS EASTERN NORTH DAKOTA  *****

CITY           SKY/WX    TMP DP  RH WIND       PRES   REMARKS
GRAND FORKS    CLOUDY    31  26  82 W13       29.65S WCI  21
GRAND FRKS AFB CLOUDY    29  26  86 NW9       29.65F WCI  21
GRAND FRKS NWS   N/A     30 N/A N/A W12         N/A  WCI  21
DEVILS LAKE    FLURRIES  24  23  96 W10       29.65R WCI  14
FARGO          CLEAR     28  24  85 SW5       29.69S WCI  23
WAHPETON ARPT  CLOUDY    32  30  93 SW7       29.71F
$$

 ***** WEATHER ACROSS CENTRAL AND WESTERN NORTH DAKOTA  *****

CITY           SKY/WX    TMP DP  RH WIND       PRES   REMARKS
BISMARCK       CLEAR     17  16  95 E3        29.67F
MINOT          CLEAR     15  13  91 CALM      29.62F
JAMESTOWN      CLEAR     26  22  84 W7        29.67R WCI  18
MINOT AFB      CLEAR      9   7  90 CALM      29.62S
GARRISON         N/A     19  17  92 CALM      29.63F
WILLISTON      CLOUDY    26  20  77 CALM      29.57F
DICKINSON      CLEAR     19  14  81 S9        29.57F WCI   8
HETTINGER      CLOUDY    28  20  71 S3        29.62F
$$

 *****  OTHER AIRPORT OBSERVATIONS IN OUR AREA  *****

CITY           SKY/WX    TMP DP  RH WIND       PRES   REMARKS
WALHALLA         N/A     28  28 100 NW8       29.62S WCI  20
GRAFTON AIRPOR CLOUDY    30  28  93 W13       29.65S WCI  20
VALLEY CITY AR FAIR      25  25 100 W5        29.69S WCI  19
CANDO          CLOUDY    23  23 100 W9        29.66S WCI  13
CAVALIER APRT    N/A     32  27  80 W12       29.62S WCI  23
GWINNER          N/A     32  30  93 SW10      29.71R WCI  24
SHEYENNE NWR     N/A     30  27  87 W6        29.95S WCI  24
ROLLA          CLOUDY    21  21 100 NW3       29.63R FOG
 ***** THE ABOVE OBSERVATIONS ARE NON NWS ARE NOT QUALITY
       CONTROLLED AND MAY MIS-REPORT RAIN FOR SNOW...
$$

  *****  WEATHER ACROSS NORTHERN MINNESOTA  *****

CITY           SKY/WX    TMP DP  RH WIND       PRES   REMARKS
FLAG ISLAND    LGT SNOW  32  30  93 SW9       29.56F WCI  24
WARROAD        CLOUDY    30  27  86 SW6       29.59F WCI  24
ROSEAU         LGT SNOW  30  27  86 SW7       29.59F WCI  23
HALLOCK        LGT SNOW  30  30 100 W8        29.61S WCI  23
THF RVR FALLS  FLURRIES  30  28  92 SW10      29.63S WCI  21
BAUDETTE       CLOUDY    32  31  96 S5        29.58F FOG
WASKISH        CLOUDY    30  30 100 SW12      29.61S FOG     WCI  21
CROOKSTON      CLOUDY    30  30 100 W13       29.66S WCI  20
GREENBUSH NDAW   N/A     30  30 100 W10         N/A  WCI  21
$$
  *****  WEATHER ACROSS CENTRAL AND WEST MINNESOTA  *****

CITY           SKY/WX    TMP DP  RH WIND       PRES   REMARKS
FOSSTON        CLOUDY    28  27  93 SW9       29.64S WCI  20
BEMIDJI        CLOUDY    29  28  93 W6        29.62F WCI  23
PARK RAPIDS    CLOUDY    32  26  78 W10       29.64F WCI  24
ELBOW LAKE     CLOUDY    32  32  99 CALM      29.71F
WADENA         CLOUDY    30  28  93 SW8       29.67F WCI  23
DETROIT LAKES  CLOUDY    32  30  93 W10G16    29.68S WCI  24
MOORHEAD       MOCLDY    30  27  86 W3        29.70S
FERGUS FALLS   CLOUDY    34  32  93 W5        29.74F
MORRIS MN      MOCLDY    34  30  86 SW9       29.72F
STAPLES        CLOUDY    30  28  93 W8        29.68S WCI  23
$$
  *****  WEATHER ELSEWHERE ACROSS MINNESOTA  *****

CITY           SKY/WX    TMP DP  RH WIND       PRES   REMARKS
DULUTH         FRZ DRZL  31  31 100 S9        29.65F FOG     WCI  23
INTRNTL FALLS  LGT SNOW  31  29  92 SE7       29.61F VSB 1   WCI  24
ELY            LGT SNOW  30  28  93 CALM      29.64F
CLOQUET        MIX PCPN  32  30  93 S5        29.65F
WHEATON        NOT AVBL
BRAINERD       CLOUDY    32  29  88 W15       29.68R WCI  22
HIBBING        CLOUDY    29  29 100 S6        29.63F FOG     WCI  23
ALEXANDRIA     CLOUDY    33  31  92 SW9       29.71F
SAINT CLOUD    CLOUDY    34  32  92 W8        29.72S
MINNEAPOLIS    CLOUDY    38  32  79 W10       29.75S
$$

  *****  WEATHER ACROSS SOUTH DAKOTA  *****

CITY           SKY/WX    TMP DP  RH WIND       PRES   REMARKS
SIOUX FALLS    CLEAR     36  30  79 SW5       29.80S
BROOKINGS      CLEAR     31  29  92 SW7       29.77S WCI  24
WATERTOWN      CLEAR     31  28  89 SW12      29.74S WCI  22
HURON          CLEAR     33  28  81 S7        29.77F
SISSETON         N/A     33  28  81 W8        29.71F
ABERDEEN       CLEAR     27  24  89 S7        29.74F WCI  19
MITCHELL       CLEAR     35  29  78 SW8       29.79F
PIERRE         CLEAR     26  22  84 CALM      29.71F
MOBRIDGE       CLOUDY    29  23  78 SE8       29.67F WCI  21
RAPID CITY     CLOUDY    37  17  44 S7        29.63F
$$

  *****  SOME WEATHER IN NEARBY STATES *****

CITY           SKY/WX    TMP DP  RH WIND       PRES   REMARKS
GLASGOW MT     CLOUDY    33  30  88 NE8       29.49F
GREAT FALLS MT CLOUDY    30  26  85 NW7       29.57R WCI  23
CHEYENNE WY    CLOUDY    41  14  33 W32G47    29.72R
SCOTTSBLUFF NE CLEAR     41  19  41 W3        29.72F
OMAHA NE       CLEAR     35  30  82 S9        29.92S
DES MOINES IA  CLEAR     34  32  92 S8        29.91S
DAVENPORT IA   CLOUDY    33  31  92 SW10      29.92R WCI  25
CHICAGO IL     LGT SNOW  31  30  96 W5        29.89S FOG
EAU CLAIRE WI  FLURRIES  33  32  96 S9        29.75F
LA CROSSE WI   CLOUDY    35  33  92 S7        29.83S
$$

  *****  SOME NATIONAL WEATHER *****

CITY           SKY/WX    TMP DP  RH WIND       PRES   REMARKS
LA GUARDIA NY  CLOUDY    44  24  45 E12       30.19S
RALEIGH NC     LGT RAIN  43  40  89 VRB3      30.14F FOG
ATLANTA GA     LGT RAIN  45  45 100 E14       30.05R FOG
NEW ORLEANS LA LGT RAIN  61  61 100 N7        29.95F
OKLAHOMA CITY  PTCLDY    42  36  79 W3        30.04R
ALBUQUERQUE NM CLOUDY    43  14  31 CALM      30.07R
SALT LAKE CITY CLOUDY    41  21  44 SE12      29.88F
LOS ANGELES CA MOCLDY    61  52  72 VRB6      29.99S
BOISE ID       LGT RAIN  41  39  93 W10       29.82S
SEATTLE WA     PTCLDY    40  34  79 E8        30.09S
$$

*** WEATHER ACROSS MANITOBA...SASKATCHEWAN AND ONTARIO ***
                ***ONTARIO***

CITY           SKY/WX    TMP DP  RH WIND       PRES   REMARKS
GERALDTON      LGT SNOW  25  25 100 E7        29.80F DRFTSNOWWCI  17
THUNDER BAY    LGT SNOW  32  32 100 SE2       29.73F
SIOUX LOOKOUT  FLURRIES  28  27  93 SE7       29.65F WCI  21
TORONTO        CLOUDY    36  30  80 E9        30.02F
BIG TROUT LK   CLOUDY    27  23  86 S9        29.76F WCI  17
PICKLE LAKE    FLURRIES  25  23  93 SE7       29.71F WCI  17
DRYDEN         FLURRIES  30  28  93 SE12      29.61F WCI  21
KENORA         LGT SNOW  30  28  93 SE8       29.57F WCI  23
$$
                *** MANITOBA***

CITY           SKY/WX    TMP DP  RH WIND       PRES   REMARKS
BRANDON        CLOUDY    27  23  86 NW10      29.63R WCI  17
DAUPHIN        CLOUDY    27  25  93 W10       29.62S WCI  17
ISLAND LAKE    FLURRIES  27  23  86 SE12      29.67F WCI  16
PILOT MOUND      N/A     27  25  93 NW9         N/A  WCI  17
THE PAS        CLOUDY    27  23  86 SW2       29.59S
THOMPSON       FLURRIES  27  25  93 CALM      29.63S
WINNIPEG       CLOUDY    30  30 100 NW9       29.57S FOG     WCI  22
LYNN LAKE      FLURRIES  23  23 100 E5        29.57S WCI  17
CHURCHILL      FLURRIES  18  16  93 SE5       29.80F WCI  11
GILLAM         FLURRIES  19  18  93 SE6       29.73F WCI  11
$$
                ***SASKATCHEWAN***

CITY           SKY/WX    TMP DP  RH WIND       PRES   REMARKS
ESTEVAN        MOCLDY    14  12  92 SE3       29.58F
KINDERSLEY     PTCLDY    16  10  79 NW9       29.59S WCI   4
LLOYDMINSTER   LGT SNOW  21  19  93 NW9       29.59R WCI  11
PRINCE ALBERT  PTCLDY    19  16  86 SW8       29.55S WCI   9
REGINA         CLOUDY    19  18  93 E8        29.56F WCI   9
YORKTON        SNOW      21  19  93 S3        29.60F VSB 3/8
N. BATTLEFORD  MOCLDY    23  14  68 W10       29.60R WCI  12
LA RONGE       CLOUDY    25  19  80 W3        29.52S
SASKATOON      PTCLDY    16  14  93 W8        29.60R WCI   5
SWIFT CURRENT  MOCLDY    18  16  93 N6        29.52S WCI   9
$$
NOTE: THESE ARE AUTOMATED STATIONS WITH LIMITED QUALITY CONTROL
      "FAIR" INDICATES FEW OR NO CLOUDS BELOW 12,000 FEET WITH NO
      SIGNIFICANT WEATHER AND/OR OBSTRUCTIONS TO VISIBILITY.
      SKY/WX - SKY CONDITION AND SIGNIFICANT WEATHER.
      TMP - AIR TEMPERATURE.    DP   - DEWPOINT TEMPERATURE.
      RH  - RELATIVE HUMIDITY.  PRES - PRESSURE.
      HX  - HEAT INDEX.         WCI  - WIND CHILL INDEX.
$



USA.gov is the U.S. government's official web portal to all federal, state and local government web resources and services.